Location: Twillingate Astronomical Observatory
(49.6173°N, 54.7580°W)
Time: 15:30:56
(UTC-02:-30)

Amateur Radio Satellites - All Passes

Search period start: 20 September 2014 15:00
Search period end: 21 September 2014 15:00
Location: Twillingate Astronomical Observatory, 49.6173°N, 54.7580°W

Satellite Date Start Highest point End Downlink Frequencies (MHz)
Time Altitude Azimuth
AO-Echo 20 Sep 15:01:58 15:06:20 36° 263° (W) 15:10:41 ?
Oscar 10/S400 20 Sep 15:05:23 15:14:55 15° 141° (SE) 15:25:08 145.825 - 145.975 CW/USB, Beacon 145.810 USB
AO-7 20 Sep 15:07:53 15:15:32 43° 56° (NE) 15:23:11 29.400 - 29.500 MHz
Gurwin Techsat 1B 20 Sep 15:32:50 15:37:57 49° 261° (W) 15:43:07 435.225 FM
ITAMSAT 1 20 Sep 15:41:17 15:45:15 22° 269° (W) 15:49:14 435.822 SSB
Uribyol 2 20 Sep 15:45:39 15:49:19 19° 270° (W) 15:53:02 436.500 FM
RS-15 20 Sep 15:58:16 16:05:53 22° 260° (W) 16:13:44 29.354 - 29.394 USB, Beacon 29.352 USB
JAS-1B 20 Sep 15:59:04 16:05:29 25° 269° (W) 16:11:10 435.800 - 435.900 CW/SSB
TMSAT-1 20 Sep 16:09:55 16:14:38 33° 265° (W) 16:19:24 436.925 FM
Uosat F 20 Sep 16:11:50 16:16:45 64° 70° (ENE) 16:21:43 435.120 FM
Sapphire 20 Sep 16:13:21 16:16:22 15° 343° (NNW) 16:19:23 437.095 MHz 1200 baud AX-25 AFSK
AO-27 20 Sep 16:19:52 16:21:04 11° 276° (W) 16:22:16 436.795 MHz FM
MaSat-1 20 Sep 16:36:49 16:40:09 23° 42° (NE) 16:43:07 437.345 MHz
Saudisat 1A 20 Sep 16:38:20 16:40:47 15° 111° (ESE) 16:43:15 436.775 MHz
PCSat 20 Sep 16:41:36 16:44:03 13° 351° (N) 16:46:30 145.825 MHz
Hamsat 20 Sep 16:46:55 16:49:46 17° 60° (ENE) 16:52:37 145.90 MHz
AO-7 20 Sep 17:00:01 17:08:09 57° 257° (WSW) 17:16:19 29.400 - 29.500 MHz
OPAL 20 Sep 17:12:32 17:16:42 24° 94° (E) 17:20:48 ?
JAS-2 20 Sep 17:27:34 17:32:33 48° 67° (ENE) 17:37:34 435.800 - 435.900 CW/SSB, 435.910 FM
Uosat F 20 Sep 17:52:22 17:56:00 20° 269° (W) 17:59:39 435.120 FM
Sapphire 20 Sep 17:59:39 18:02:12 13° 10° (N) 18:04:45 437.095 MHz 1200 baud AX-25 AFSK
MaSat-1 20 Sep 18:13:20 18:17:10 46° 246° (WSW) 18:20:27 437.345 MHz
Saudisat 1A 20 Sep 18:15:20 18:19:45 86° 310° (NW) 18:24:12 436.775 MHz
Hamsat 20 Sep 18:20:56 18:25:17 66° 259° (WSW) 18:29:38 145.90 MHz
PCSat 20 Sep 18:26:42 18:29:52 15° 18° (NNE) 18:33:01 145.825 MHz
KITSAT 1 20 Sep 18:38:05 18:44:06 24° 104° (ESE) 18:50:08 435.175 FM
HO-68 20 Sep 18:49:12 18:53:26 17° 43° (NE) 18:57:40 435.675 MHz FM
OPAL 20 Sep 18:50:50 18:55:56 57° 293° (WNW) 19:00:56 ?
AO-7 20 Sep 19:00:01 19:02:52 12° 279° (W) 19:05:44 29.400 - 29.500 MHz
SO-67 20 Sep 19:11:21 19:14:47 67° 75° (ENE) 19:18:14 435.3500 MHz FM
JAS-2 20 Sep 19:13:43 19:18:01 26° 268° (W) 19:22:19 435.800 - 435.900 CW/SSB, 435.910 FM
STRAND 1 20 Sep 19:33:14 19:38:01 38° 97° (E) 19:42:47 ?
Sapphire 20 Sep 19:42:54 19:47:33 27° 36° (NE) 19:52:10 437.095 MHz 1200 baud AX-25 AFSK
Saudisat 1A 20 Sep 19:56:32 19:59:58 22° 331° (NNW) 20:03:25 436.775 MHz
PCSat 20 Sep 20:09:45 20:14:51 39° 42° (NE) 20:19:55 145.825 MHz
UKube-1 20 Sep 20:17:21 20:19:58 16° 58° (ENE) 20:22:36 145.840 MHz, 145.915 MHz
AO-40 20 Sep 20:21:35 01:35:16 32° 184° (S) 06:58:08 Beacon 2401.320
KITSAT 1 20 Sep 20:30:22 20:38:29 88° 126° (SE) 20:46:38 435.175 FM
OPAL 20 Sep 20:31:55 20:33:46 12° 314° (NW) 20:35:36 ?
HO-68 20 Sep 20:32:49 20:39:48 60° 65° (ENE) 20:46:49 435.675 MHz FM
SO-67 20 Sep 20:48:04 20:48:15 10° 272° (W) 20:48:26 435.3500 MHz FM
STRAND 1 20 Sep 21:12:32 21:17:12 36° 296° (WNW) 21:21:50 ?
Sapphire 20 Sep 21:26:06 21:31:33 78° 237° (WSW) 21:36:58 437.095 MHz 1200 baud AX-25 AFSK
FUNcube-1 20 Sep 21:27:13 21:30:44 23° 62° (ENE) 21:34:20 145.950 - 145.970 MHz USB
Oscar 11 20 Sep 21:33:32 21:37:47 54° 71° (ENE) 21:42:04 145.825 FM, Beacon 2401.500 USB
Saudisat 1A 20 Sep 21:39:28 21:41:09 12° 356° (N) 21:42:50 436.775 MHz
UKube-1 20 Sep 21:51:20 21:55:39 74° 256° (WSW) 22:00:01 145.840 MHz, 145.915 MHz
PCSat 20 Sep 21:53:12 21:58:24 47° 243° (WSW) 22:03:33 145.825 MHz
HO-68 20 Sep 22:21:36 22:27:54 33° 266° (W) 22:34:16 435.675 MHz FM
SO-50 20 Sep 22:22:25 22:26:23 31° 118° (ESE) 22:30:27 436.795 FM
KITSAT 1 20 Sep 22:27:30 22:34:51 36° 331° (NNW) 22:42:14 435.175 FM
FUNcube-1 20 Sep 23:02:32 23:06:50 49° 261° (W) 23:11:17 145.950 - 145.970 MHz USB
Oscar 11 20 Sep 23:11:11 23:14:18 19° 269° (W) 23:17:26 145.825 FM, Beacon 2401.500 USB
Sapphire 20 Sep 23:11:25 23:14:05 14° 257° (WSW) 23:16:45 437.095 MHz 1200 baud AX-25 AFSK
Saudisat 1A 20 Sep 23:19:45 23:22:32 16° 20° (NNE) 23:25:18 436.775 MHz
UOSAT-12 20 Sep 23:54:03 23:57:47 24° 115° (ESE) 00:01:34 437.025 FM, 437.400 FM
SO-50 21 Sep 00:02:25 00:06:48 46° 318° (NW) 00:11:19 436.795 FM
KITSAT 1 21 Sep 00:26:27 00:32:51 25° 360° (N) 00:39:15 435.175 FM
Saudisat 1A 21 Sep 00:58:50 01:03:08 48° 43° (NE) 01:07:25 436.775 MHz
Oscar 16 21 Sep 01:24:10 01:26:49 14° 86° (E) 01:29:26 437.025 USB, Beacon 2401.1428
UOSAT-12 21 Sep 01:32:59 01:37:36 60° 315° (NW) 01:42:18 437.025 FM, 437.400 FM
SO-50 21 Sep 01:45:29 01:48:30 17° 341° (NNW) 01:51:33 436.795 FM
JAS-1B 21 Sep 01:48:54 01:51:11 12° 84° (E) 01:53:28 435.800 - 435.900 CW/SSB
ITAMSAT 1 21 Sep 02:09:59 02:13:01 15° 88° (E) 02:16:02 435.822 SSB
Uribyol 2 21 Sep 02:13:32 02:16:59 18° 89° (E) 02:20:26 436.500 FM
Oscar 19 21 Sep 02:22:47 02:27:41 41° 98° (E) 02:32:32 437.125 CW, 437.150 USB
KITSAT 1 21 Sep 02:23:33 02:30:53 36° 29° (NNE) 02:38:10 435.175 FM
ISS 21 Sep 02:25:28 02:27:28 15° 138° (SE) 02:29:28 145.800 FM
Saudisat 1A 21 Sep 02:38:44 02:42:33 29° 242° (WSW) 02:46:20 436.775 MHz
TMSAT-1 21 Sep 02:43:10 02:44:51 11° 84° (E) 02:46:33 436.925 FM
AO-27 21 Sep 02:44:18 02:48:52 30° 95° (E) 02:53:25 436.795 MHz FM
OPAL 21 Sep 02:55:42 02:58:22 14° 49° (NE) 03:01:03 ?
Oscar 16 21 Sep 03:01:43 03:06:57 88° 104° (ESE) 03:12:07 437.025 USB, Beacon 2401.1428
AO-Echo 21 Sep 03:03:48 03:08:30 49° 100° (E) 03:13:19 ?
UOSAT-12 21 Sep 03:15:17 03:18:41 19° 337° (NNW) 03:22:07 437.025 FM, 437.400 FM
SO-50 21 Sep 03:28:35 03:30:56 14° 7° (N) 03:33:19 436.795 FM
JAS-1B 21 Sep 03:37:12 03:43:04 82° 105° (ESE) 03:48:46 435.800 - 435.900 CW/SSB
Gurwin Techsat 1B 21 Sep 03:44:20 03:49:30 49° 99° (E) 03:54:38 435.225 FM
ITAMSAT 1 21 Sep 03:47:57 03:53:12 86° 287° (WNW) 03:58:26 435.822 SSB
Uribyol 2 21 Sep 03:51:49 03:57:04 76° 288° (WNW) 04:02:17 436.500 FM
Oscar 10/S400 21 Sep 03:52:33 04:43:58 17° 245° (WSW) 06:30:30 145.825 - 145.975 CW/USB, Beacon 145.810 USB
ISS 21 Sep 04:00:23 04:03:41 65° 156° (SSE) 04:07:00 145.800 FM
Oscar 19 21 Sep 04:02:21 04:06:56 33° 297° (WNW) 04:11:30 437.125 CW, 437.150 USB
RS-15 21 Sep 04:13:10 04:23:24 47° 113° (ESE) 04:33:32 29.354 - 29.394 USB, Beacon 29.352 USB
Uosat F 21 Sep 04:16:40 04:19:14 14° 87° (E) 04:21:48 435.120 FM
KITSAT 1 21 Sep 04:19:10 04:27:18 90° 54° (NE) 04:35:23 435.175 FM
TMSAT-1 21 Sep 04:20:24 04:25:44 73° 103° (ESE) 04:31:02 436.925 FM
AO-27 21 Sep 04:23:36 04:28:33 45° 293° (WNW) 04:33:30 436.795 MHz FM
OPAL 21 Sep 04:31:12 04:36:21 69° 69° (ENE) 04:41:34 ?
Oscar 16 21 Sep 04:42:18 04:45:38 18° 305° (NW) 04:48:56 437.025 USB, Beacon 2401.1428
AO-Echo 21 Sep 04:43:06 04:47:04 26° 298° (WNW) 04:51:06 ?
AO-7 21 Sep 04:56:24 05:04:05 40° 97° (E) 05:11:43 29.400 - 29.500 MHz
UOSAT-12 21 Sep 04:58:21 05:00:38 13° 2° (N) 05:02:56 437.025 FM, 437.400 FM
SO-50 21 Sep 05:09:08 05:13:06 25° 31° (NNE) 05:17:07 436.795 FM
STRAND 1 21 Sep 05:17:12 05:20:07 16° 54° (NE) 05:23:02 ?
Gurwin Techsat 1B 21 Sep 05:24:43 05:29:16 30° 298° (WNW) 05:33:48 435.225 FM
ITAMSAT 1 21 Sep 05:28:49 05:31:59 17° 306° (NW) 05:35:09 435.822 SSB
JAS-1B 21 Sep 05:29:03 05:33:03 19° 308° (NW) 05:36:55 435.800 - 435.900 CW/SSB
Uribyol 2 21 Sep 05:32:54 05:35:43 15° 307° (NW) 05:38:33 436.500 FM
ISS 21 Sep 05:37:10 05:40:29 59° 356° (N) 05:43:47 145.800 FM
Uosat F 21 Sep 05:53:41 05:58:45 90° 286° (WNW) 06:03:47 435.120 FM
TMSAT-1 21 Sep 06:01:15 06:05:08 21° 303° (WNW) 06:09:02 436.925 FM
Hamsat 21 Sep 06:03:23 06:06:10 17° 89° (E) 06:08:55 145.90 MHz
OPAL 21 Sep 06:11:57 06:15:44 20° 267° (W) 06:19:33 ?
JAS-2 21 Sep 06:15:03 06:20:24 32° 95° (E) 06:26:19 435.800 - 435.900 CW/SSB, 435.910 FM
KITSAT 1 21 Sep 06:15:34 06:21:44 25° 255° (WSW) 06:27:53 435.175 FM
RS-15 21 Sep 06:24:27 06:35:22 67° 318° (NW) 06:46:20 29.354 - 29.394 USB, Beacon 29.352 USB
UOSAT-12 21 Sep 06:38:51 06:42:31 21° 26° (NNE) 06:46:10 437.025 FM, 437.400 FM
AO-7 21 Sep 06:49:09 06:57:13 59° 299° (WNW) 07:05:16 29.400 - 29.500 MHz
SO-50 21 Sep 06:49:25 06:54:14 84° 232° (SW) 06:59:06 436.795 FM
STRAND 1 21 Sep 06:53:28 06:58:33 83° 73° (ENE) 07:03:42 ?
ISS 21 Sep 07:14:01 07:17:22 82° 16° (NNE) 07:20:43 145.800 FM
Uosat F 21 Sep 07:33:48 07:36:52 17° 305° (NW) 07:39:56 435.120 FM
Hamsat 21 Sep 07:38:19 07:42:31 57° 288° (WNW) 07:46:39 145.90 MHz
JAS-2 21 Sep 07:59:59 08:05:42 53° 292° (WNW) 08:12:07 435.800 - 435.900 CW/SSB, 435.910 FM
MaSat-1 21 Sep 08:02:26 08:06:43 29° 109° (ESE) 08:10:54 437.345 MHz
SO-67 21 Sep 08:03:41 08:07:00 42° 98° (E) 08:10:18 435.3500 MHz FM
UOSAT-12 21 Sep 08:18:41 08:23:27 74° 48° (NE) 08:28:09 437.025 FM, 437.400 FM
SO-50 21 Sep 08:31:32 08:34:07 15° 250° (WSW) 08:36:43 436.795 FM
STRAND 1 21 Sep 08:35:27 08:38:26 15° 272° (W) 08:41:25 ?
RS-15 21 Sep 08:40:05 08:50:03 38° 350° (N) 09:00:11 29.354 - 29.394 USB, Beacon 29.352 USB
AO-7 21 Sep 08:43:05 08:48:24 19° 322° (NW) 08:53:43 29.400 - 29.500 MHz
ISS 21 Sep 08:50:57 08:53:52 28° 215° (SW) 08:56:46 145.800 FM
UKube-1 21 Sep 09:36:37 09:38:56 14° 89° (E) 09:41:15 145.840 MHz, 145.915 MHz
SO-67 21 Sep 09:37:32 09:39:45 16° 297° (WNW) 09:41:57 435.3500 MHz FM
MaSat-1 21 Sep 09:38:25 09:43:17 50° 307° (NW) 09:47:57 437.345 MHz
HO-68 21 Sep 09:43:13 09:49:57 41° 97° (E) 09:56:38 435.675 MHz FM
JAS-2 21 Sep 09:47:43 09:49:43 12° 311° (NW) 09:51:47 435.800 - 435.900 CW/SSB, 435.910 FM
UOSAT-12 21 Sep 09:59:45 10:03:07 19° 247° (WSW) 10:06:26 437.025 FM, 437.400 FM
FUNcube-1 21 Sep 10:47:33 10:51:26 26° 93° (E) 10:55:16 145.950 - 145.970 MHz USB
Oscar 11 21 Sep 10:52:49 10:57:09 60° 101° (E) 11:01:25 145.825 FM, Beacon 2401.500 USB
RS-15 21 Sep 10:55:19 11:05:42 44° 23° (NNE) 11:16:22 29.354 - 29.394 USB, Beacon 29.352 USB
PCSat 21 Sep 11:00:05 11:01:38 11° 101° (ESE) 11:03:12 145.825 MHz
UKube-1 21 Sep 11:11:18 11:15:40 74° 287° (WNW) 11:20:01 145.840 MHz, 145.915 MHz
MaSat-1 21 Sep 11:18:35 11:21:03 14° 327° (NNW) 11:23:26 437.345 MHz
HO-68 21 Sep 11:30:56 11:37:48 50° 298° (WNW) 11:44:39 435.675 MHz FM
Oscar 19 21 Sep 12:07:10 12:10:27 17° 55° (NE) 12:13:44 437.125 CW, 437.150 USB
Sapphire 21 Sep 12:12:18 12:17:18 40° 115° (ESE) 12:22:20 437.095 MHz 1200 baud AX-25 AFSK
FUNcube-1 21 Sep 12:23:35 12:27:59 43° 292° (WNW) 12:32:19 145.950 - 145.970 MHz USB
Oscar 11 21 Sep 12:29:54 12:32:56 19° 300° (WNW) 12:35:57 145.825 FM, Beacon 2401.500 USB
AO-27 21 Sep 12:30:46 12:33:11 13° 51° (NE) 12:35:36 436.795 MHz FM
JAS-1B 21 Sep 12:37:01 12:43:13 27° 57° (ENE) 12:48:40 435.800 - 435.900 CW/SSB
PCSat 21 Sep 12:38:40 12:44:01 66° 121° (ESE) 12:49:25 145.825 MHz
Oscar 16 21 Sep 12:44:37 12:49:12 32° 63° (ENE) 12:53:47 437.025 USB, Beacon 2401.1428
AO-Echo 21 Sep 12:45:04 12:47:52 16° 56° (ENE) 12:50:41 ?
UKube-1 21 Sep 12:49:44 12:51:06 11° 306° (NW) 12:52:28 145.840 MHz, 145.915 MHz
RS-15 21 Sep 13:08:20 13:19:26 89° 232° (SW) 13:30:58 29.354 - 29.394 USB, Beacon 29.352 USB
HO-68 21 Sep 13:20:25 13:23:56 15° 320° (NW) 13:27:28 435.675 MHz FM
ITAMSAT 1 21 Sep 13:31:42 13:36:23 36° 64° (ENE) 13:41:06 435.822 SSB
Gurwin Techsat 1B 21 Sep 13:31:55 13:35:47 21° 57° (ENE) 13:39:40 435.225 FM
Uribyol 2 21 Sep 13:35:16 13:40:04 40° 65° (ENE) 13:44:55 436.500 FM
Oscar 19 21 Sep 13:43:54 13:49:06 90° 75° (ENE) 13:54:21 437.125 CW, 437.150 USB
Sapphire 21 Sep 13:55:32 14:00:43 44° 315° (NW) 14:05:55 437.095 MHz 1200 baud AX-25 AFSK
AO-27 21 Sep 14:06:40 14:11:48 69° 71° (ENE) 14:16:58 436.795 MHz FM
TMSAT-1 21 Sep 14:06:55 14:11:24 29° 61° (ENE) 14:15:55 436.925 FM
AO-7 21 Sep 14:10:22 14:16:33 24° 43° (NE) 14:22:43 29.400 - 29.500 MHz
AO-Echo 21 Sep 14:21:21 14:26:04 83° 256° (WSW) 14:30:48 ?
PCSat 21 Sep 14:23:06 14:27:52 31° 322° (NW) 14:32:41 145.825 MHz
Oscar 16 21 Sep 14:23:31 14:28:26 43° 262° (W) 14:33:24 437.025 USB, Beacon 2401.1428
JAS-1B 21 Sep 14:25:05 14:33:23 80° 255° (WSW) 14:40:17 435.800 - 435.900 CW/SSB
Oscar 10/S400 21 Sep 14:28:16 14:30:21 10° 141° (SE) 14:32:25 145.825 - 145.975 CW/USB, Beacon 145.810 USB
